FW2998 Weather Reports


time (UTC)temp
F
wind
direction
speed
knots
gust
knots
rain 1hr
in
rain 24hr
in
rain mn
in
humidity
%
barometer
mb
20260510221020 88 43 0.9 6.1 0.00 0.01 0.01 37 1014.9
20260510220518 88 294 0.0 7.0 0.00 0.01 0.01 37 1014.9
20260510220039 88 348 0.9 7.0 0.00 0.01 0.01 36 1014.9
20260510215518 88 305 0.9 6.1 0.00 0.02 0.01 37 1014.9
20260510215020 88 309 0.0 5.2 0.00 0.02 0.01 38 1015.0
20260510214538 88 0 0.0 5.2 0.00 0.02 0.01 37 1015.0
20260510214019 88 282 0.9 6.1 0.00 0.02 0.01 37 1014.9
20260510213521 88 290 1.7 7.0 0.00 0.02 0.01 36 1014.9
20260510213056 88 343 0.9 7.0 0.00 0.02 0.01 36 1014.9
20260510212520 88 308 0.0 9.6 0.00 0.02 0.01 38 1014.9
20260510212020 88 0 1.7 9.6 0.00 0.02 0.01 37 1014.8
20260510211539 88 61 0.9 6.1 0.00 0.02 0.01 36 1014.7
20260510211021 88 54 0.9 8.7 0.00 0.02 0.01 36 1014.8
20260510210519 89 0 0.9 8.7 0.00 0.02 0.01 35 1014.8
20260510210037 89 298 1.7 7.8 0.00 0.02 0.01 33 1014.7
20260510205519 89 0 0.9 8.7 0.00 0.02 0.01 35 1014.7
20260510205019 89 0 1.7 8.7 0.00 0.02 0.01 34 1014.7
20260510204537 89 231 1.7 7.0 0.00 0.02 0.01 33 1014.7
20260510204019 89 355 1.7 7.0 0.00 0.02 0.01 33 1014.8
20260510203520 89 190 0.9 9.6 0.00 0.02 0.01 33 1014.8
20260510203037 89 309 0.9 9.6 0.00 0.02 0.01 33 1014.9
20260510202520 89 284 0.9 9.6 0.00 0.02 0.01 33 1014.8
20260510202019 89 263 1.7 8.7 0.00 0.02 0.01 32 1014.8
20260510201535 89 317 0.9 5.2 0.00 0.02 0.01 34 1014.7
20260510201020 89 274 1.7 8.7 0.00 0.02 0.01 34 1015.0
20260510200519 89 259 2.6 8.7 0.00 0.02 0.01 35 1015.0
20260510200044 90 275 0.9 6.1 0.00 0.02 0.01 32 1015.1
20260510195520 89 0 0.9 6.1 0.00 0.02 0.01 35 1015.2
20260510195018 89 0 0.0 7.8 0.00 0.02 0.01 36 1015.0
20260510194534 88 289 0.0 7.8 0.00 0.02 0.01 34 1015.2
20260510194019 88 288 0.9 7.0 0.00 0.02 0.01 34 1014.9
20260510193520 88 0 0.9 7.0 0.00 0.02 0.01 31 1015.1
20260510193037 89 308 1.7 7.8 0.00 0.02 0.01 35 1015.2
20260510192518 88 137 1.7 7.8 0.00 0.02 0.01 33 1015.2
20260510192019 88 239 1.7 7.8 0.00 0.02 0.01 32 1015.2
20260510191536 88 0 0.9 7.0 0.00 0.02 0.01 33 1015.2
20260510191020 88 302 0.9 7.0 0.00 0.02 0.01 38 1015.3
20260510190519 88 64 0.9 7.0 0.00 0.02 0.01 42 1015.3
20260510190051 89 313 0.9 5.2 0.00 0.02 0.01 39 1015.2
20260510185520 88 298 0.0 2.6 0.00 0.02 0.01 41 1015.2
20260510185019 88 0 0.0 2.6 0.00 0.02 0.01 41 1015.3
20260510184540 87 0 0.9 3.5 0.00 0.02 0.01 41 1015.3
20260510184019 87 0 1.7 3.5 0.00 0.02 0.01 39 1015.5
20260510183519 88 0 0.0 7.0 0.00 0.02 0.01 42 1015.6
20260510183036 88 0 1.7 7.0 0.00 0.02 0.01 41 1015.6
20260510182521 87 0 1.7 6.1 0.00 0.02 0.01 40 1015.5
20260510182018 87 0 0.0 2.6 0.00 0.02 0.01 43 1015.7
20260510181541 87 0 0.0 3.5 0.00 0.02 0.01 41 1015.7
20260510181019 87 0 0.0 3.5 0.00 0.02 0.01 43 1015.8
20260510180520 86 0 0.0 2.6 0.00 0.02 0.01 43 1015.8
20260510180039 87 81 0.0 3.5 0.00 0.02 0.01 43 1015.9
20260510175521 86 0 0.0 3.5 0.00 0.02 0.01 44 1015.9
20260510175018 86 40 0.0 3.5 0.00 0.02 0.01 45 1015.9
20260510174546 85 0 0.9 3.5 0.00 0.02 0.01 46 1015.9
20260510174020 85 0 0.0 5.2 0.00 0.02 0.01 44 1015.9
20260510173522 85 0 0.9 5.2 0.00 0.02 0.01 44 1016.0
20260510173038 85 223 0.0 5.2 0.00 0.02 0.01 44 1016.0
20260510172519 85 78 0.0 3.5 0.00 0.02 0.01 45 1016.0
20260510172020 86 0 0.0 3.5 0.00 0.02 0.01 45 1016.1
20260510171550 86 296 0.0 2.6 0.00 0.02 0.01 45 1016.2
20260510171017 85 0 0.0 2.6 0.00 0.02 0.01 48 1016.1
20260510170519 85 0 0.0 2.6 0.00 0.02 0.01 46 1016.2
20260510170045 85 0 0.0 7.8 0.00 0.02 0.01 47 1016.2
20260510165518 85 0 0.0 7.8 0.00 0.02 0.01 45 1016.4
20260510165018 85 261 1.7 7.8 0.00 0.02 0.01 45 1016.5
20260510164532 85 0 0.9 5.2 0.00 0.02 0.01 45 1016.5
20260510164017 85 64 0.9 3.5 0.00 0.02 0.01 46 1016.5
20260510163526 85 76 0.0 3.5 0.00 0.02 0.01 47 1016.4
20260510163046 85 0 0.0 3.5 0.00 0.02 0.01 50 1016.5
20260510162519 85 11 0.0 3.5 0.00 0.02 0.01 49 1016.5
20260510162020 85 284 0.0 3.5 0.00 0.02 0.01 52 1016.5
20260510161534 84 0 0.0 2.6 0.00 0.02 0.01 53 1016.5
20260510161018 84 0 0.9 2.6 0.00 0.02 0.01 51 1016.5
20260510160520 84 0 0.0 2.6 0.00 0.02 0.01 52 1016.6
20260510160041 84 0 0.0 2.6 0.00 0.02 0.01 55 1016.6
20260510155518 83 118 0.0 2.6 0.00 0.02 0.01 55 1016.6
20260510155020 83 0 0.0 3.5 0.00 0.02 0.01 58 1016.7
20260510154536 82 0 0.0 3.5 0.00 0.02 0.01 55 1016.8
20260510154018 83 95 0.0 5.2 0.00 0.02 0.01 56 1016.7
20260510153517 82 0 0.0 5.2 0.00 0.02 0.01 60 1016.7
20260510153040 81 119 0.0 5.2 0.00 0.02 0.01 59 1016.8
20260510152520 81 0 0.0 3.5 0.00 0.02 0.01 59 1016.8
20260510152019 81 0 0.0 6.1 0.00 0.02 0.01 61 1016.8
20260510151537 80 275 0.9 6.1 0.00 0.02 0.01 63 1016.8
20260510151019 80 0 0.0 3.5 0.00 0.02 0.01 63 1016.7
20260510150519 79 0 0.0 2.6 0.00 0.02 0.01 63 1016.7
20260510150048 79 0 0.0 5.2 0.00 0.02 0.01 64 1016.7
20260510145520 79 16 0.9 6.1 0.00 0.02 0.01 63 1016.7
20260510145018 78 0 0.0 6.1 0.00 0.02 0.01 68 1016.6
20260510144543 78 0 0.9 6.1 0.00 0.02 0.01 66 1016.7
20260510144018 78 0 0.9 3.5 0.00 0.02 0.01 67 1016.6
20260510143522 78 105 0.9 3.5 0.00 0.02 0.01 68 1016.6
20260510143037 77 0 0.0 1.7 0.00 0.02 0.01 73 1016.6
20260510142519 77 0 0.0 1.7 0.00 0.02 0.01 73 1016.5
20260510142020 76 82 0.0 1.7 0.00 0.02 0.01 73 1016.5
20260510141536 75 42 0.0 1.7 0.00 0.02 0.01 76 1016.5
20260510141020 75 0 0.0 7.0 0.00 0.02 0.01 76 1016.5
20260510140519 74 277 0.9 7.0 0.00 0.02 0.01 76 1016.5
20260510140035 74 287 0.9 7.0 0.00 0.02 0.01 77 1016.5
20260510135522 73 0 0.0 2.6 0.00 0.02 0.01 79 1016.5
20260510135020 73 0 0.0 5.2 0.00 0.02 0.01 80 1016.5
20260510134535 72 0 0.0 5.2 0.00 0.02 0.01 81 1016.6
20260510134023 71 271 0.0 2.6 0.00 0.02 0.01 84 1016.6
20260510133519 71 284 0.0 3.5 0.00 0.02 0.01 86 1016.6
20260510133039 70 0 0.9 3.5 0.00 0.02 0.01 87 1016.6
20260510132519 69 0 0.0 0.9 0.00 0.02 0.01 90 1016.5
20260510132020 68 0 0.0 0.9 0.00 0.02 0.01 91 1016.4
20260510131532 68 0 0.0 2.6 0.00 0.02 0.01 93 1016.4
20260510131025 67 0 0.0 2.6 0.00 0.02 0.01 94 1016.4
20260510130522 67 0 0.0 1.7 0.00 0.02 0.01 94 1016.3
20260510130038 66 0 0.0 1.7 0.00 0.02 0.01 95 1016.3
20260510125524 66 0 0.0 1.7 0.00 0.02 0.01 95 1016.5
20260510125021 65 0 0.0 3.5 0.00 0.02 0.01 95 1016.4
20260510124536 65 263 0.0 3.5 0.00 0.02 0.01 95 1016.4
20260510124019 65 5 0.0 2.6 0.00 0.02 0.01 95 1016.4
20260510123523 64 0 0.0 2.6 0.00 0.02 0.01 95 1016.4
20260510123036 64 0 0.0 3.5 0.00 0.02 0.01 95 1016.3
20260510122521 64 315 0.0 3.5 0.00 0.02 0.01 95 1016.3
20260510122020 64 308 0.0 0.0 0.00 0.02 0.01 95 1016.4
20260510121539 64 0 0.0 0.0 0.00 0.02 0.01 94 1016.4
20260510121022 63 0 0.0 0.0 0.00 0.02 0.01 94 1016.2
20260510120526 63 0 0.0 0.0 0.00 0.02 0.01 94 1016.2
20260510120038 63 0 0.0 0.0 0.00 0.02 0.01 94 1016.1
20260510115520 63 0 0.0 0.0 0.00 0.03 0.01 94 1015.9
20260510115022 63 0 0.0 0.0 0.00 0.03 0.01 94 1016.0
20260510114537 63 0 0.0 0.0 0.00 0.03 0.01 94 1015.9
20260510114019 62 0 0.0 0.0 0.00 0.03 0.01 94 1015.9
20260510113521 62 0 0.0 0.0 0.00 0.03 0.01 94 1015.6
20260510113041 62 0 0.0 0.0 0.00 0.03 0.01 93 1015.6
20260510112521 62 0 0.0 0.0 0.00 0.03 0.01 93 1015.6
20260510112023 62 0 0.0 0.0 0.00 0.03 0.01 93 1015.6
20260510111536 62 0 0.0 0.0 0.00 0.03 0.01 93 1015.6
20260510111020 62 0 0.0 0.0 0.00 0.03 0.01 93 1015.3
20260510110520 62 0 0.0 0.0 0.00 0.03 0.01 93 1015.3
20260510110047 62 0 0.0 0.0 0.00 0.03 0.01 92 1015.3
20260510105522 62 0 0.0 0.0 0.00 0.03 0.01 92 1015.1
20260510105020 62 0 0.0 0.0 0.00 0.03 0.01 92 1015.2
20260510104535 62 0 0.0 0.0 0.00 0.03 0.01 93 1015.0
20260510104021 62 0 0.0 0.0 0.00 0.03 0.01 93 1015.0
20260510103521 62 0 0.0 0.0 0.00 0.03 0.01 92 1014.9
20260510103043 62 0 0.0 0.0 0.00 0.03 0.01 92 1014.9
20260510102522 62 0 0.0 0.0 0.00 0.03 0.01 92 1014.8
20260510102021 62 0 0.0 0.0 0.00 0.03 0.01 92 1014.7
20260510101541 62 0 0.0 0.0 0.00 0.03 0.01 92 1014.5
20260510101022 62 0 0.0 0.0 0.00 0.03 0.01 92 1014.5
20260510100522 63 0 0.0 0.0 0.00 0.03 0.01 92 1014.5
20260510100047 63 0 0.0 0.0 0.00 0.03 0.01 92 1014.4
20260510095521 63 0 0.0 0.0 0.00 0.04 0.01 93 1014.5
20260510095021 63 0 0.0 0.0 0.00 0.04 0.01 93 1014.4
20260510094541 63 0 0.0 0.0 0.00 0.04 0.01 93 1014.4
20260510094022 63 0 0.0 0.0 0.00 0.04 0.01 93 1014.4
20260510093521 63 0 0.0 0.0 0.00 0.04 0.01 92 1014.4
20260510093039 63 0 0.0 0.0 0.00 0.04 0.01 93 1014.3
20260510092522 63 0 0.0 0.0 0.00 0.04 0.01 92 1014.3
20260510092021 63 0 0.0 0.0 0.00 0.04 0.01 92 1014.2
20260510091534 63 0 0.0 0.0 0.00 0.04 0.01 92 1014.0
20260510091020 63 0 0.0 0.0 0.00 0.04 0.01 92 1014.0
20260510090522 63 0 0.0 0.0 0.00 0.04 0.01 92 1014.0
20260510090035 63 0 0.0 0.0 0.00 0.04 0.01 92 1013.9
20260510085521 63 0 0.0 0.0 0.00 0.04 0.01 92 1013.8
20260510085021 63 0 0.0 0.0 0.00 0.04 0.01 92 1013.9
20260510084539 63 0 0.0 0.0 0.00 0.04 0.01 92 1013.9
20260510084020 63 0 0.0 0.0 0.00 0.04 0.01 92 1013.9
20260510083523 63 0 0.0 0.0 0.00 0.04 0.01 92 1013.8
20260510083036 63 0 0.0 0.0 0.00 0.04 0.01 92 1013.7
20260510082519 64 0 0.0 0.0 0.00 0.04 0.01 92 1013.6
20260510082021 64 0 0.0 0.0 0.00 0.04 0.01 92 1013.6
20260510081541 64 0 0.0 0.0 0.00 0.04 0.01 92 1013.6
20260510081022 64 0 0.0 0.0 0.00 0.04 0.01 92 1013.6
20260510080521 64 0 0.0 0.0 0.00 0.04 0.01 92 1013.7
20260510080051 64 0 0.0 0.0 0.00 0.04 0.01 92 1013.6
20260510075522 64 0 0.0 0.0 0.00 0.04 0.01 92 1013.5
20260510075022 64 0 0.0 0.0 0.00 0.04 0.01 92 1013.4
20260510074538 64 0 0.0 0.0 0.00 0.04 0.01 92 1013.4
20260510074021 64 0 0.0 0.0 0.00 0.04 0.01 91 1013.4
20260510073521 64 0 0.0 0.0 0.00 0.04 0.01 91 1013.6
20260510073047 64 0 0.0 0.0 0.01 0.04 0.01 91 1013.5
20260510072521 64 0 0.0 0.0 0.01 0.04 0.01 91 1013.5
20260510072022 64 0 0.0 0.0 0.01 0.04 0.01 91 1013.5
20260510071538 64 0 0.0 0.0 0.01 0.04 0.01 91 1013.5
20260510071021 64 0 0.0 0.0 0.01 0.04 0.01 91 1013.5
20260510070521 64 0 0.0 0.0 0.01 0.04 0.01 91 1013.5
20260510070046 64 0 0.0 0.0 0.01 0.04 0.01 91 1013.6
20260510065521 64 0 0.0 0.0 0.01 0.04 0.01 91 1013.4
20260510065021 64 0 0.0 0.0 0.01 0.04 0.01 91 1013.4
20260510064543 64 0 0.0 0.0 0.01 0.04 0.01 91 1013.3
20260510064020 64 0 0.0 0.0 0.01 0.04 0.01 90 1013.4
20260510063521 64 0 0.0 0.0 0.01 0.04 0.01 90 1013.3
20260510063038 64 0 0.0 0.0 0.00 0.03 0.00 90 1013.4
20260510062519 64 0 0.0 0.0 0.00 0.03 0.00 90 1013.4
20260510062020 64 0 0.0 0.0 0.00 0.03 0.00 90 1013.4
20260510061533 64 0 0.0 0.0 0.00 0.03 0.00 90 1013.4
20260510061019 64 0 0.0 0.0 0.00 0.03 0.00 89 1013.5
20260510060519 64 0 0.0 0.0 0.00 0.03 0.00 89 1013.5
20260510060041 64 0 0.0 0.0 0.00 0.03 0.00 89 1013.4
20260510055526 64 0 0.0 0.0 0.00 0.04 0.00 89 1013.5
20260510055018 64 0 0.0 0.0 0.00 0.04 0.00 89 1013.5
20260510054537 64 0 0.0 0.0 0.00 0.04 0.00 89 1013.7
20260510054022 65 0 0.0 0.0 0.00 0.04 0.00 89 1013.7
20260510053520 65 0 0.0 0.0 0.00 0.04 0.00 89 1013.7
20260510053037 65 0 0.0 0.0 0.00 0.04 0.00 89 1013.7
20260510052519 65 0 0.0 0.0 0.00 0.04 0.00 89 1013.7
20260510052022 65 0 0.0 0.0 0.00 0.04 0.00 89 1013.7
20260510051536 65 0 0.0 0.0 0.00 0.04 0.00 89 1013.7
20260510051018 65 0 0.0 0.0 0.00 0.04 0.00 88 1013.7
20260510050519 65 0 0.0 0.0 0.00 0.04 0.00 88 1013.8
20260510050037 65 0 0.0 0.0 0.00 0.04 0.00 88 1013.8
20260510045522 65 0 0.0 0.0 0.00 0.05 0.00 88 1013.8
20260510045019 65 0 0.0 0.0 0.00 0.05 0.00 88 1013.9
20260510044536 65 0 0.0 0.0 0.00 0.05 0.00 88 1013.8
20260510044019 65 0 0.0 0.0 0.00 0.05 0.00 88 1013.8
20260510043518 66 0 0.0 0.0 0.00 0.05 0.00 88 1013.8
20260510043034 66 0 0.0 0.0 0.00 0.05 0.00 88 1013.7
20260510042518 66 0 0.0 0.0 0.00 0.05 0.00 87 1013.8
20260510042020 66 0 0.0 0.0 0.00 0.05 0.00 87 1013.7
20260510041539 66 0 0.0 0.0 0.00 0.05 0.00 87 1013.8
20260510041023 66 0 0.0 0.0 0.00 0.05 0.00 87 1013.7
20260510040519 66 0 0.0 0.0 0.00 0.05 0.00 87 1013.7
20260510040038 66 0 0.0 0.0 0.00 0.05 0.00 86 1013.7
20260510035521 66 0 0.0 0.0 0.00 0.05 0.05 86 1013.7
20260510035019 66 0 0.0 0.0 0.00 0.05 0.05 86 1013.5
20260510034536 67 0 0.0 0.0 0.00 0.05 0.05 86 1013.7
20260510034022 67 0 0.0 0.0 0.00 0.05 0.05 86 1013.7
20260510033519 67 0 0.0 0.0 0.00 0.05 0.05 85 1013.6
20260510033046 67 0 0.0 0.0 0.00 0.05 0.05 85 1013.6
20260510032519 67 0 0.0 0.0 0.00 0.05 0.05 85 1013.5
20260510032019 67 0 0.0 0.0 0.00 0.05 0.05 85 1013.6
20260510031538 68 0 0.0 0.0 0.00 0.05 0.05 85 1013.7
20260510031019 68 0 0.0 0.0 0.00 0.05 0.05 85 1013.6
20260510030519 68 0 0.0 0.0 0.00 0.05 0.05 85 1013.6
20260510030034 68 0 0.0 0.0 0.00 0.05 0.05 84 1013.6
20260510025522 68 0 0.0 0.0 0.00 0.05 0.05 84 1013.6
20260510025020 68 0 0.0 0.0 0.00 0.05 0.05 84 1013.5
20260510024535 68 0 0.0 0.0 0.00 0.05 0.05 84 1013.5
20260510024022 68 0 0.0 0.0 0.00 0.05 0.05 84 1013.6
20260510023520 68 0 0.0 0.0 0.00 0.05 0.05 84 1013.6
20260510023036 69 0 0.0 0.0 0.00 0.05 0.05 84 1013.6
20260510022519 69 0 0.0 0.0 0.00 0.05 0.05 83 1013.6
20260510022019 69 0 0.0 0.0 0.00 0.05 0.05 83 1013.6
20260510021616 69 0 0.0 0.0 0.00 0.05 0.05 83 1013.6
20260510021019 69 0 0.0 0.0 0.00 0.05 0.05 83 1013.6
20260510020519 69 0 0.0 0.0 0.00 0.05 0.05 82 1013.6
20260510020035 69 0 0.0 0.0 0.00 0.05 0.05 82 1013.5
20260510015521 69 0 0.0 0.0 0.00 0.05 0.05 82 1013.4
20260510015018 69 0 0.0 0.0 0.00 0.05 0.05 82 1013.3
20260510014548 69 0 0.0 0.0 0.00 0.05 0.05 82 1013.3
20260510014020 70 0 0.0 0.0 0.00 0.05 0.05 82 1013.2
20260510013522 70 0 0.0 0.0 0.00 0.05 0.05 82 1013.2
20260510013033 70 0 0.0 0.0 0.00 0.05 0.05 81 1013.1
20260510012519 70 0 0.0 0.0 0.00 0.05 0.05 81 1013.0
20260510012019 70 0 0.0 0.0 0.00 0.05 0.05 81 1012.9
20260510011534 70 0 0.0 0.0 0.00 0.05 0.05 81 1013.1
20260510011021 70 0 0.0 0.0 0.00 0.05 0.05 80 1012.8
20260510010522 70 0 0.0 0.0 0.00 0.05 0.05 80 1012.7
20260510010043 70 0 0.0 0.0 0.00 0.05 0.05 80 1012.6
20260510005522 70 0 0.0 0.0 0.00 0.06 0.05 79 1012.5
20260510005022 70 0 0.0 0.0 0.00 0.06 0.05 79 1012.5
20260510004535 71 0 0.0 0.0 0.00 0.06 0.05 79 1012.5
20260510004019 71 0 0.0 0.0 0.00 0.06 0.05 78 1012.5
20260510003519 71 0 0.0 0.0 0.00 0.06 0.05 78 1012.3
20260510003036 71 0 0.0 0.0 0.00 0.06 0.05 78 1012.2
20260510002520 71 0 0.0 0.0 0.00 0.06 0.05 77 1012.1
20260510002019 72 0 0.0 0.0 0.00 0.06 0.05 76 1012.0
20260510001534 72 0 0.0 0.0 0.00 0.06 0.05 76 1011.9
20260510001022 72 0 0.0 0.0 0.00 0.06 0.05 76 1011.8
20260510000520 72 0 0.0 0.0 0.00 0.06 0.05 76 1011.8
20260510000036 72 0 0.0 0.0 0.00 0.06 0.05 75 1011.7
20260509235520 73 0 0.0 0.0 0.00 0.06 0.05 75 1011.6
20260509235019 73 0 0.0 0.0 0.00 0.06 0.05 75 1011.6
20260509234538 73 0 0.0 0.0 0.00 0.06 0.05 75 1011.6
20260509234021 73 0 0.0 0.0 0.00 0.06 0.05 75 1011.5
20260509233519 73 0 0.0 0.0 0.00 0.06 0.05 74 1011.4
20260509233036 73 0 0.0 0.0 0.00 0.06 0.05 74 1011.4
20260509232521 74 0 0.0 1.7 0.00 0.06 0.05 74 1011.2
20260509232019 74 0 0.0 1.7 0.00 0.06 0.05 73 1011.2
20260509231537 74 0 0.0 2.6 0.00 0.06 0.05 73 1011.3
20260509231019 74 0 0.0 2.6 0.00 0.06 0.05 73 1011.2
20260509230519 74 277 0.0 1.7 0.00 0.06 0.05 73 1011.3
20260509230040 74 0 0.0 1.7 0.00 0.06 0.05 73 1011.2
20260509225519 74 0 0.0 1.7 0.00 0.06 0.05 73 1011.1
20260509225018 74 0 0.0 3.5 0.00 0.06 0.05 72 1011.2
20260509224536 74 0 0.0 3.5 0.00 0.06 0.05 72 1011.2
20260509224019 75 273 0.0 0.9 0.00 0.06 0.05 73 1011.2
20260509223519 75 0 0.0 0.9 0.00 0.06 0.05 73 1011.1
20260509223032 75 0 0.0 0.9 0.00 0.06 0.05 73 1011.3
20260509222519 75 0 0.0 2.6 0.00 0.06 0.05 73 1011.3
20260509222019 75 0 0.0 2.6 0.00 0.06 0.05 73 1011.3
20260509221538 75 0 0.0 0.9 0.00 0.06 0.05 73 1011.2